sat.trackr.live / text

‹ back to catalog

CENTISPACE-1 S1

NORAD 43636 · 2018-075A

PAYLOAD ACTIVE UNKNOWN

§ Identity

Operator
Country
PRC
Launch date
2018-09-29
Launch site
JSC
Launch vehicle
Mass (kg)
RCS (m²)

External: N2YO · Heavens-Above · Gunter

§ Orbital elements

Epoch: 2026-09-13T04:09:22.891104Z

Period
98.63 min
Inclination
97.8709°
Eccentricity
0.0008103
Mean motion
14.60067658 rev/d
Perigee alt
687.2 km
Apogee alt
698.7 km
Semi-major
7,071.1 km
B*
5.1178e-5
RAAN
275.5327°
Arg perigee
194.9332°
Mean anomaly
165.1631°
Rev number
42,339

§ Raw data

CENTISPACE-1 S11 43636U 18075A   26256.17318161  .00000203  00000+0  51178-4 0  99922 43636  97.8709 275.5327 0008103 194.9332 165.1631 14.60067658423395

JSON: /api/v1/satellites/43636 · /tle

For live sub-satellite position, see the globe view (requires WebGL).

§ Visibility from observer

Set your observer location to see the next 7 days of passes ≥ 10°. The values pass through the URL so the page stays shareable.

No JS? Fill the form by hand. The geolocation button needs JavaScript.